Temp
91 89 89 87 87 86 88 88 88 85 84 85 84 83 80 79 74 72 75 77 79 84 92 87 85 87 85 85 88 86 85 87 84 84 83 83 83 79 75 75 75 75 75 74 74 75 75 75 76 76 76 76 77 77 77 76 77 77 77 76 76 76 76 76 75 75 75 75 75 75 75 75 75 75
87 89 89 88 86 88 88 87 90 86 86 84 84 83 83 81 76 75 73 74 80 80 87 92 84 85 84 86 86 87 84 84 86 85 84 85 85 81 76 74 74 75 74 74 73 74 74 74 74 75 76 76 76 76 76 77 77 77 76 76 76 76 76 75 75 75 75 75 75 75 75 75 75 75
87 87 87 87 87 87 88 88 90 88 86 86 85 85 83 83 81 78 77 74 78 84 81 85 92 88 85 90 89 88 86 86 87 86 85 85 83 81 80 75 75 74 74 73 73 73 73 73 73 73 74 74 75 75 75 75 76 76 76 76 76 76 76 75 74 74 74 74 74 74 75 74 74 74
88 86 86 86 87 87 86 87 87 86 87 87 85 85 85 84 83 81 79 76 75 82 83 84 85 90 87 85 85 86 87 88 83 85 84 85 83 83 85 81 75 74 73 73 73 72 72 70 71 72 73 74 74 74 75 75 75 75 75 75 75 74 74 74 74 74 74 74 74 74 74 74 74 74
88 86 86 86 87 87 86 86 87 87 87 87 87 86 85 84 84 82 80 77 76 80 84 84 85 88 88 87 87 85 86 86 85 83 85 84 85 85 85 85 81 75 73 73 73 72 72 71 71 72 72 73 74 74 74 74 74 73 73 74 73 72 73 73 74 74 74 74 74 74 74 74 74 74
88 87 85 86 87 87 86 87 88 88 88 88 87 84 85 83 84 84 81 79 77 77 82 82 85 85 89 84 86 85 85 86 85 86 85 87 85 85 85 85 86 79 76 74 73 73 72 71 71 71 72 72 73 73 73 73 72 72 73 72 71 71 71 71 72 73 73 74 74 74 74 74 73 74
86 86 85 86 87 89 87 86 87 89 87 88 87 86 86 84 85 85 84 81 79 79 79 83 83 84 85 84 84 85 87 85 86 84 85 88 88 87 87 86 90 83 77 75 73 73 72 72 71 71 70 71 71 71 71 70 70 71 70 69 69 70 70 70 70 71 72 72 73 74 74 73 73 73
86 86 85 86 87 87 85 85 85 86 87 86 85 86 86 86 85 85 85 84 81 81 79 81 81 83 82 83 85 86 86 87 85 85 85 86 86 87 88 88 89 86 80 78 75 73 72 71 70 70 69 69 69 69 69 68 68 68 68 68 68 67 68 67 67 69 69 70 70 72 73 73 73 72
85 85 86 86 86 86 85 85 85 86 85 86 85 85 85 85 85 86 85 84 83 81 79 80 82 83 83 84 84 85 84 84 84 85 84 85 84 84 88 89 91 82 79 78 76 75 73 72 71 70 69 69 69 68 68 67 67 67 66 65 65 66 66 66 66 66 67 67 67 68 70 71 72 71
87 87 86 86 87 86 85 86 86 85 85 86 86 85 85 85 85 84 84 84 83 82 80 80 80 82 82 82 82 84 84 83 82 82 83 84 84 83 83 87 90 92 94 93 92 83 78 74 70 70 71 70 69 69 68 68 67 66 64 62 63 65 64 64 64 64 64 64 64 65 67 69 70 70
88 88 88 87 87 87 86 87 86 86 86 86 85 85 85 85 84 84 83 83 82 82 81 81 81 81 82 82 80 83 85 84 83 81 81 80 83 83 82 81 86 91 91 87 81 82 81 80 80 75 70 69 69 68 67 68 67 66 65 63 62 62 62 63 62 62 62 63 63 64 64 64 66 69
90 89 90 90 89 88 87 87 87 87 85 86 85 86 85 85 84 83 83 83 82 81 81 80 80 81 80 81 83 85 84 81 80 82 81 78 79 80 82 83 83 85 85 85 90 85 84 84 80 74 74 74 72 69 68 69 69 69 67 65 66 65 63 62 62 61 61 61 62 62 63 63 63 65
89 90 91 91 92 89 88 86 86 87 87 87 84 84 85 84 84 83 83 82 81 81 81 80 81 80 79 80 80 80 79 79 80 82 83 81 81 82 81 82 84 85 84 84 87 87 86 85 84 85 84 85 82 83 76 74 74 70 67 66 66 66 65 63 62 62 61 60 60 60 62 62 62 62
89 90 92 92 91 88 87 83 82 81 82 84 87 86 86 84 83 83 82 81 81 81 79 80 80 79 79 81 81 81 82 83 83 83 82 80 81 81 80 81 83 85 85 83 81 82 86 86 83 83 83 86 85 84 86 85 82 75 69 68 67 66 66 64 63 62 61 60 60 60 59 60 61 61
88 89 90 90 92 89 89 85 80 80 79 79 79 80 82 84 85 84 82 82 82 80 80 81 80 80 79 81 83 83 84 85 83 83 82 80 80 78 76 75 79 84 83 80 79 79 83 83 80 81 83 86 85 86 86 77 74 71 70 69 68 67 66 66 65 63 62 61 61 60 59 59 60 60
87 88 90 91 92 90 90 89 85 81 77 76 77 76 77 77 76 77 81 81 80 80 80 79 80 81 80 80 82 83 85 82 82 82 81 80 78 77 76 76 75 81 83 79 77 77 81 82 81 80 82 84 85 89 80 75 73 72 70 68 67 66 66 66 67 65 64 63 63 62 61 60 60 60
86 86 86 88 89 93 90 89 88 85 83 75 72 74 75 75 74 71 70 71 79 81 78 78 78 79 80 80 81 83 82 83 80 80 79 79 78 78 76 77 78 80 81 79 77 76 80 81 80 80 82 84 86 87 79 75 72 70 69 69 69 68 67 66 65 65 65 64 62 60 60 61 61 60
87 86 86 85 86 88 88 87 88 87 85 84 81 78 78 80 81 74 70 69 68 71 78 78 77 79 81 79 80 82 83 81 79 79 78 79 77 77 77 79 79 80 83 79 77 75 78 81 81 80 82 84 84 84 79 73 74 74 70 67 67 66 66 66 65 64 63 64 63 61 59 58 58 58
88 87 87 86 86 86 86 87 88 87 87 85 84 83 83 83 83 84 85 83 82 79 78 78 78 80 81 81 82 82 83 83 83 81 80 79 79 79 80 79 80 80 82 81 78 73 78 81 80 80 82 85 83 83 78 76 74 70 69 69 69 67 65 65 65 64 63 63 62 61 60 58 57 57
87 87 87 86 86 86 86 84 80 83 87 86 85 84 83 83 85 86 84 78 79 85 85 82 83 83 85 79 84 82 82 82 82 82 82 81 79 77 76 75 79 78 82 83 79 77 78 82 81 80 82 83 81 82 83 78 74 72 71 69 70 70 68 66 64 63 63 63 62 61 59 57 56 56
87 88 87 86 87 87 86 81 72 72 82 86 85 85 85 86 87 86 88 76 71 72 71 71 72 73 72 71 67 64 67 76 77 79 77 77 79 76 74 74 75 77 81 83 82 80 77 79 79 79 80 79 79 80 81 82 76 71 71 71 70 68 67 66 65 64 63 62 61 60 60 57 55 56
85 87 88 89 87 87 86 77 69 68 78 84 84 85 85 85 85 85 89 93 86 67 66 68 69 69 69 70 68 69 66 66 72 79 75 79 79 75 74 73 75 78 78 80 83 77 76 79 79 77 78 76 79 81 80 79 78 74 73 71 70 68 65 65 67 67 66 63 61 60 58 58 58 60
85 86 85 85 83 85 83 72 67 66 76 84 84 83 84 82 82 85 88 87 88 87 82 78 78 78 76 76 78 79 74 71 76 78 79 79 77 74 74 74 74 73 77 80 80 75 75 76 77 75 73 72 76 80 78 78 78 79 78 79 80 68 67 66 67 65 67 64 60 58 57 57 57 64
84 85 86 82 70 67 68 68 63 62 66 82 84 84 83 82 81 87 87 86 86 84 85 86 84 82 84 84 83 83 83 80 79 80 80 79 78 77 76 77 75 73 75 79 80 74 77 76 74 76 75 70 69 75 76 76 77 78 78 77 78 72 72 72 70 68 66 65 61 59 56 55 56 65
84 84 85 87 75 65 63 62 59 57 59 70 83 83 82 84 81 79 82 84 85 83 83 82 82 83 84 83 84 83 83 85 86 84 82 81 81 79 77 76 76 77 80 79 74 76 73 75 74 75 73 74 74 72 73 74 75 75 77 77 75 76 76 75 73 76 69 67 65 60 56 54 55 62
84 86 86 85 78 65 63 61 58 55 57 60 76 82 71 71 69 78 81 81 81 81 81 82 81 82 83 84 83 83 84 87 86 87 84 82 81 80 80 77 75 74 75 79 73 77 74 73 74 73 73 70 70 71 69 71 73 74 75 76 76 75 75 75 75 75 75 75 74 68 68 61 55 56
85 87 87 86 78 64 60 59 58 57 57 60 70 65 65 65 66 74 79 80 79 78 79 79 80 79 79 80 80 81 82 85 79 82 80 80 80 79 80 80 80 78 77 79 79 78 76 74 75 72 70 70 67 68 69 68 70 73 72 74 74 75 76 75 72 72 72 71 71 66 64 64 57 55
87 86 87 84 69 60 56 57 58 59 59 67 61 59 61 63 70 76 77 77 77 76 76 76 77 78 79 80 79 81 80 80 77 79 79 80 79 78 78 78 79 80 78 79 79 78 78 75 74 72 71 69 67 66 66 70 71 71 70 72 73 74 73 71 70 69 69 68 68 67 67 68 69 61
85 69 66 68 63 58 57 57 58 60 60 60 61 60 61 71 74 74 75 76 76 75 75 76 77 78 78 79 80 80 78 78 79 78 80 79 78 78 78 78 78 78 81 83 80 79 77 74 73 72 71 70 69 69 68 67 69 69 70 69 67 69 69 69 68 67 66 65 64 65 65 67 68 69
59 57 54 54 57 59 61 65 69 72 71 61 61 62 66 73 75 75 75 75 75 75 76 76 76 78 79 78 77 77 78 76 76 77 76 75 75 76 75 74 75 77 80 81 81 78 76 75 73 71 70 70 69 68 68 67 66 69 68 67 66 68 68 67 66 65 64 62 63 63 66 68 68 68
73 66 73 73 67 68 63 68 70 72 71 66 65 68 71 75 77 77 76 77 77 76 77 76 78 78 77 77 78 76 75 74 75 76 73 74 74 74 73 72 72 73 77 79 80 78 77 75 74 73 69 69 70 69 68 69 67 67 67 67 66 62 64 65 64 63 63 63 63 64 65 66 67 69
82 78 69 68 76 75 73 76 79 80 77 76 74 75 75 76 78 79 80 80 79 78 78 79 77 75 76 75 76 76 75 75 75 75 74 72 72 73 72 70 70 73 75 76 77 77 78 76 74 73 73 71 68 68 68 68 66 66 65 66 65 65 65 63 62 62 63 62 62 62 63 64 65 66
81 79 77 77 78 78 78 78 80 80 79 79 79 80 80 79 80 79 78 76 75 76 76 74 73 73 74 75 76 76 75 74 74 74 72 72 72 73 73 70 70 71 70 71 74 74 75 75 75 74 72 70 69 68 66 64 65 65 64 64 63 62 62 63 62 62 62 61 60 61 60 62 64 65
79 79 78 79 78 79 79 79 79 80 80 79 80 80 75 79 80 78 77 77 76 74 72 72 70 69 69 69 71 73 73 72 73 72 70 71 72 71 70 71 71 71 70 70 72 73 73 74 74 72 72 68 64 65 66 65 63 64 64 63 62 60 61 62 62 62 61 60 59 58 58 60 62 63
78 79 78 79 79 79 80 79 80 80 81 80 80 80 80 80 78 75 76 74 71 69 69 68 68 67 68 69 71 71 71 71 72 73 71 71 71 71 72 71 71 71 71 70 71 72 72 71 69 68 66 68 67 63 63 64 64 63 63 62 61 60 60 62 62 61 61 60 60 57 57 57 58 61
77 79 79 79 80 80 80 80 81 82 83 81 80 79 79 78 75 71 67 67 69 69 70 67 66 67 67 69 69 69 70 70 71 71 71 72 72 73 73 72 71 72 71 72 71 73 71 70 68 65 64 63 63 63 63 62 63 64 61 60 60 59 60 61 61 61 61 60 59 57 54 54 56 59
77 78 79 79 80 80 80 81 81 81 82 80 79 78 75 73 69 68 67 67 68 68 67 67 68 68 67 67 67 67 68 69 70 71 72 72 72 70 71 71 71 70 70 71 72 72 71 68 66 65 62 62 61 60 62 67 60 60 64 61 60 61 59 59 59 59 60 59 58 57 55 55 55 58
77 79 79 79 79 80 79 79 78 77 76 75 73 72 72 73 70 69 69 68 66 67 67 68 69 68 68 68 67 69 70 71 71 72 72 73 71 69 69 69 70 70 69 70 73 71 70 67 66 65 63 61 60 60 60 64 65 62 58 62 60 61 61 59 57 58 57 59 57 57 57 55 56 57
78 78 79 79 77 76 75 75 75 75 74 73 72 71 70 70 69 69 68 67 68 68 68 69 70 71 69 71 71 71 71 71 70 73 72 71 71 70 69 69 70 70 69 69 72 72 69 67 66 66 65 64 62 63 62 61 62 63 60 56 61 60 60 58 57 57 56 55 56 57 58 58 59 60
77 77 76 75 74 73 72 72 72 72 70 70 70 71 70 68 70 70 68 67 69 70 70 71 71 70 72 73 73 74 74 72 72 72 72 71 71 71 71 69 68 68 70 69 69 70 69 67 67 67 66 66 66 68 68 66 66 67 64 57 57 61 61 59 56 55 54 54 55 54 54 55 53 56
75 75 72 72 72 71 71 70 69 69 69 69 69 68 70 70 69 68 70 70 70 71 72 72 72 72 72 74 73 73 72 72 72 73 72 72 71 71 68 67 68 69 68 67 70 68 70 69 71 68 70 69 68 69 66 63 63 64 64 63 55 53 56 58 58 55 53 54 54 53 52 51 51 53
70 70 71 72 71 71 71 70 69 69 69 68 68 69 70 69 68 67 70 70 71 71 73 72 71 71 72 72 74 72 72 73 72 70 71 72 71 70 68 68 69 71 69 68 68 69 72 72 71 70 69 69 68 66 63 63 62 63 64 63 57 53 53 55 56 56 55 54 53 51 50 51 52 51
68 69 69 69 69 69 70 69 68 69 69 68 67 69 70 70 70 71 72 71 71 72 73 74 73 73 73 74 73 73 73 73 73 73 73 73 72 72 71 71 72 72 71 70 71 70 72 74 72 71 70 69 68 68 63 65 64 64 63 64 58 55 54 53 53 53 54 54 54 53 52 50 48 47
68 68 68 69 68 69 69 70 70 70 70 71 71 71 72 72 73 72 72 72 72 72 74 74 74 74 75 77 75 74 73 74 73 72 71 71 71 71 71 71 71 71 71 71 70 70 70 70 72 71 69 68 69 67 65 65 64 65 65 65 62 59 54 54 54 56 56 54 53 53 52 53 54 52
66 67 67 68 68 68 68 71 71 69 68 69 71 70 71 73 72 74 73 73 73 74 73 73 75 75 74 74 73 75 72 67 70 72 71 72 71 70 71 72 72 71 70 70 69 68 70 70 71 70 69 68 68 67 67 66 65 64 65 66 63 63 63 62 62 59 56 55 54 53 53 53 53 52
MSLP
1018.87 1019.03 1019.07 1019.19 1019.23 1019.11 1018.79 1018.79 1018.83 1018.87 1019.03 1019.31 1019.55 1019.83 1020.75 1021.35 1022.63 1023.35 1023.11 1022.19 1021.59 1020.11 1019.03 1019.79 1018.87 1017.99 1018.03 1018.15 1017.91 1018.07 1018.11 1017.99 1018.07 1018.19 1018.23 1018.23 1018.15 1018.15 1018.27 1018.31 1018.35 1018.31 1018.31 1018.31 1018.27 1018.27 1018.23 1018.23 1018.23 1018.23 1018.23 1018.15 1018.07 1017.99 1018.03 1018.11 1018.19 1018.23 1018.23 1018.23 1018.23 1018.27 1018.31 1018.39 1018.51 1018.59 1018.67 1018.79 1018.91 1019.03 1019.11 1019.19 1019.23 1019.19
1018.79 1018.79 1018.79 1018.87 1019.19 1018.91 1018.95 1019.03 1018.83 1018.91 1019.11 1019.35 1019.59 1019.79 1019.91 1020.27 1021.79 1022.23 1023.11 1022.75 1021.11 1020.79 1019.27 1018.71 1019.27 1018.39 1018.31 1018.03 1018.11 1017.99 1018.03 1017.83 1017.83 1017.91 1017.95 1017.95 1017.83 1017.75 1017.83 1017.91 1017.95 1017.95 1017.95 1017.95 1017.91 1017.91 1017.87 1017.83 1017.83 1017.75 1017.67 1017.59 1017.55 1017.55 1017.67 1017.75 1017.83 1017.87 1017.87 1017.83 1017.83 1017.87 1017.91 1017.99 1018.11 1018.23 1018.31 1018.43 1018.51 1018.63 1018.75 1018.83 1018.91 1018.95
1018.75 1018.87 1018.95 1018.71 1018.91 1018.79 1018.91 1018.83 1018.75 1018.71 1018.95 1019.23 1019.39 1019.55 1019.59 1019.99 1020.47 1021.27 1021.87 1023.07 1021.07 1019.83 1020.39 1019.23 1018.39 1018.63 1018.35 1017.95 1017.95 1017.83 1017.67 1017.55 1017.51 1017.55 1017.59 1017.55 1017.43 1017.43 1017.47 1017.55 1017.59 1017.59 1017.59 1017.59 1017.59 1017.59 1017.55 1017.51 1017.47 1017.39 1017.31 1017.31 1017.35 1017.39 1017.43 1017.47 1017.47 1017.47 1017.47 1017.43 1017.39 1017.39 1017.43 1017.51 1017.63 1017.75 1017.83 1017.95 1018.07 1018.15 1018.27 1018.39 1018.47 1018.55
1018.59 1018.79 1019.03 1018.91 1018.87 1018.75 1018.79 1018.95 1018.91 1018.87 1018.75 1018.91 1019.27 1019.43 1019.59 1019.75 1019.87 1020.35 1021.23 1022.07 1022.07 1020.03 1019.99 1019.47 1018.79 1018.23 1018.23 1017.99 1018.19 1017.99 1017.67 1017.27 1017.27 1017.35 1017.35 1017.23 1017.23 1017.27 1017.23 1017.19 1017.31 1017.39 1017.39 1017.39 1017.35 1017.31 1017.23 1017.19 1017.11 1017.07 1017.07 1017.07 1017.07 1017.07 1017.07 1017.07 1017.07 1017.07 1017.03 1016.99 1016.95 1016.95 1016.95 1017.03 1017.11 1017.19 1017.31 1017.39 1017.51 1017.63 1017.75 1017.87 1017.99 1018.15
1018.43 1018.63 1018.87 1018.83 1018.71 1018.55 1018.95 1018.99 1018.95 1018.91 1018.83 1018.83 1019.03 1019.15 1019.35 1019.71 1019.67 1020.11 1020.87 1021.71 1021.63 1020.35 1019.19 1019.19 1018.99 1018.23 1018.03 1018.35 1017.91 1018.11 1017.87 1017.59 1017.31 1017.15 1017.07 1017.07 1017.23 1017.19 1017.15 1017.03 1016.99 1017.03 1017.07 1017.03 1016.95 1016.87 1016.79 1016.71 1016.67 1016.63 1016.63 1016.63 1016.59 1016.55 1016.55 1016.55 1016.55 1016.55 1016.55 1016.55 1016.51 1016.51 1016.51 1016.55 1016.63 1016.71 1016.79 1016.87 1016.99 1017.11 1017.27 1017.39 1017.51 1017.67
1018.35 1018.39 1018.67 1018.75 1018.63 1018.47 1018.79 1018.83 1018.95 1018.87 1018.83 1018.79 1019.07 1019.19 1019.35 1019.55 1019.63 1019.31 1020.27 1020.83 1021.19 1021.31 1019.79 1019.51 1018.55 1018.47 1017.91 1018.67 1017.59 1018.03 1017.99 1017.71 1017.27 1017.35 1017.23 1017.03 1016.99 1017.11 1016.99 1016.95 1016.79 1016.63 1016.59 1016.59 1016.51 1016.39 1016.31 1016.27 1016.23 1016.19 1016.19 1016.19 1016.19 1016.15 1016.15 1016.19 1016.19 1016.23 1016.23 1016.19 1016.15 1016.15 1016.11 1016.15 1016.23 1016.31 1016.39 1016.47 1016.55 1016.67 1016.79 1016.91 1017.03 1017.15
1018.27 1018.47 1018.55 1018.63 1018.47 1018.35 1018.67 1018.75 1018.75 1018.59 1018.67 1018.55 1018.75 1018.87 1018.87 1019.23 1019.19 1019.03 1019.19 1020.03 1020.79 1020.79 1020.35 1019.23 1019.27 1018.79 1018.31 1018.43 1018.19 1017.67 1017.43 1017.27 1017.15 1017.35 1017.27 1017.15 1016.87 1016.67 1016.67 1016.71 1016.47 1016.23 1016.19 1016.19 1016.11 1015.99 1015.91 1015.83 1015.79 1015.79 1015.79 1015.79 1015.75 1015.79 1015.79 1015.79 1015.83 1015.87 1015.83 1015.79 1015.75 1015.71 1015.71 1015.71 1015.79 1015.91 1016.07 1016.15 1016.23 1016.31 1016.39 1016.47 1016.55 1016.67
1018.19 1018.39 1018.55 1018.43 1018.27 1018.27 1018.55 1018.55 1018.59 1018.51 1018.47 1018.59 1018.63 1018.67 1018.59 1018.71 1018.91 1018.75 1018.79 1018.99 1019.71 1019.99 1020.43 1019.51 1019.27 1018.67 1018.71 1018.31 1017.75 1017.51 1017.35 1017.43 1017.35 1017.23 1017.07 1016.83 1016.91 1016.75 1016.55 1016.51 1016.39 1016.11 1015.95 1015.79 1015.63 1015.51 1015.39 1015.39 1015.39 1015.47 1015.51 1015.55 1015.51 1015.51 1015.51 1015.51 1015.47 1015.47 1015.43 1015.39 1015.31 1015.23 1015.19 1015.23 1015.31 1015.47 1015.59 1015.75 1015.87 1015.95 1016.03 1016.11 1016.15 1016.23
1017.87 1018.03 1018.19 1018.15 1018.07 1018.11 1018.43 1018.43 1018.47 1018.35 1018.51 1018.43 1018.51 1018.67 1018.55 1018.63 1018.55 1018.55 1018.63 1018.79 1018.91 1019.51 1019.95 1019.55 1018.67 1018.35 1018.31 1017.91 1017.71 1017.47 1017.87 1017.59 1017.35 1017.07 1017.15 1017.03 1016.95 1016.79 1016.47 1016.27 1015.99 1015.79 1015.51 1015.27 1015.11 1015.03 1015.11 1015.15 1015.15 1015.11 1015.03 1014.99 1014.95 1014.99 1014.99 1014.95 1014.95 1014.95 1014.95 1014.95 1014.87 1014.79 1014.75 1014.79 1014.87 1014.99 1015.15 1015.23 1015.35 1015.47 1015.55 1015.63 1015.71 1015.83
1017.39 1017.63 1017.75 1017.75 1017.75 1017.95 1018.23 1018.31 1018.19 1018.15 1018.31 1018.23 1018.35 1018.47 1018.47 1018.39 1018.39 1018.59 1018.59 1018.59 1018.83 1019.07 1019.23 1019.23 1019.15 1018.51 1018.67 1018.39 1017.99 1017.43 1017.35 1017.75 1017.83 1017.55 1017.11 1016.75 1016.63 1016.75 1016.75 1016.35 1015.91 1015.51 1015.27 1015.19 1014.87 1014.75 1014.71 1014.67 1014.51 1014.39 1014.39 1014.43 1014.47 1014.43 1014.35 1014.35 1014.35 1014.39 1014.43 1014.43 1014.43 1014.35 1014.31 1014.31 1014.39 1014.55 1014.67 1014.79 1014.91 1014.95 1014.99 1015.03 1015.15 1015.31
1016.99 1017.11 1017.23 1017.35 1017.43 1017.63 1017.67 1017.83 1017.91 1017.91 1017.99 1018.07 1018.19 1018.15 1018.23 1018.19 1018.43 1018.63 1018.67 1018.63 1018.79 1018.91 1019.07 1018.87 1018.67 1018.67 1018.07 1018.03 1018.39 1017.39 1016.87 1017.03 1017.27 1017.79 1017.79 1017.67 1016.71 1016.47 1016.55 1016.67 1015.99 1015.43 1015.27 1014.91 1014.75 1014.63 1014.59 1014.43 1014.27 1014.15 1014.11 1014.11 1014.07 1014.03 1013.99 1013.91 1013.87 1013.83 1013.87 1013.87 1013.87 1013.87 1013.87 1013.87 1013.91 1014.03 1014.19 1014.31 1014.39 1014.47 1014.55 1014.63 1014.67 1014.75
1016.59 1016.67 1016.71 1016.79 1016.87 1017.03 1017.11 1017.23 1017.31 1017.39 1017.71 1017.67 1017.99 1017.75 1017.83 1017.99 1018.27 1018.55 1018.59 1018.71 1018.79 1018.91 1018.87 1018.87 1018.79 1018.35 1018.31 1017.91 1017.43 1017.07 1017.11 1017.55 1017.43 1017.07 1017.43 1017.99 1017.47 1016.91 1016.31 1016.15 1016.27 1015.67 1015.43 1015.47 1014.99 1014.43 1014.27 1014.19 1014.11 1013.99 1013.83 1013.75 1013.71 1013.67 1013.59 1013.43 1013.35 1013.31 1013.27 1013.31 1013.39 1013.43 1013.43 1013.43 1013.39 1013.51 1013.67 1013.79 1013.87 1013.99 1014.11 1014.19 1014.31 1014.43
1016.31 1016.27 1016.23 1016.27 1016.27 1016.31 1016.47 1016.55 1016.71 1016.79 1016.87 1017.31 1017.75 1017.59 1017.55 1017.83 1018.07 1018.31 1018.43 1018.63 1018.79 1018.79 1018.79 1018.75 1018.31 1018.39 1018.35 1018.11 1018.11 1018.11 1018.03 1018.07 1017.87 1016.91 1016.71 1017.11 1016.71 1016.55 1016.63 1016.15 1015.55 1015.51 1015.71 1015.39 1015.11 1014.91 1014.59 1014.63 1014.47 1014.15 1014.03 1013.63 1013.43 1013.19 1013.03 1012.95 1012.87 1012.83 1012.79 1012.83 1012.83 1012.83 1012.83 1012.91 1012.91 1012.95 1013.11 1013.27 1013.39 1013.55 1013.67 1013.75 1013.87 1013.99
1016.07 1016.03 1015.91 1015.71 1015.71 1015.83 1015.99 1016.15 1016.27 1016.39 1016.47 1016.55 1016.79 1017.07 1017.23 1017.47 1017.79 1018.07 1018.35 1018.55 1018.59 1018.75 1018.95 1018.79 1018.63 1018.75 1018.47 1018.07 1017.79 1017.79 1017.35 1016.79 1016.51 1016.67 1016.71 1017.35 1016.99 1016.79 1016.91 1016.51 1015.91 1015.23 1015.39 1015.63 1015.75 1015.15 1014.47 1014.63 1014.59 1014.31 1014.23 1013.51 1013.19 1013.07 1012.83 1012.63 1012.39 1012.31 1012.31 1012.35 1012.35 1012.39 1012.43 1012.43 1012.47 1012.51 1012.59 1012.75 1012.95 1013.07 1013.19 1013.31 1013.39 1013.51
1015.95 1015.75 1015.63 1015.55 1015.39 1015.43 1015.59 1015.75 1015.91 1016.03 1016.15 1016.31 1016.39 1016.47 1016.59 1016.75 1017.19 1017.71 1018.11 1018.19 1018.15 1018.51 1018.63 1018.31 1018.35 1018.35 1018.23 1017.71 1017.23 1017.19 1016.91 1016.59 1016.67 1016.75 1016.79 1017.03 1017.11 1017.59 1018.03 1018.31 1016.59 1015.07 1015.19 1015.67 1015.95 1015.67 1014.63 1014.63 1014.95 1014.47 1014.07 1013.59 1013.19 1012.87 1012.67 1012.31 1012.19 1012.11 1012.07 1012.07 1012.11 1012.11 1012.11 1012.07 1012.07 1012.11 1012.15 1012.27 1012.43 1012.59 1012.71 1012.83 1012.95 1013.07
1015.55 1015.59 1015.47 1015.31 1015.19 1015.23 1015.27 1015.39 1015.67 1015.83 1015.91 1016.03 1016.11 1016.23 1016.35 1016.47 1016.55 1016.67 1017.15 1017.75 1018.11 1018.15 1018.35 1018.35 1018.07 1017.91 1017.87 1017.47 1017.11 1016.99 1016.83 1016.87 1016.75 1016.67 1016.75 1016.99 1017.35 1017.67 1017.83 1017.67 1017.71 1015.63 1014.87 1015.79 1016.07 1015.87 1014.63 1014.35 1014.63 1014.59 1013.99 1013.47 1013.11 1012.71 1012.35 1012.15 1011.99 1011.87 1011.83 1011.83 1011.79 1011.79 1011.75 1011.71 1011.71 1011.75 1011.79 1011.83 1011.95 1012.11 1012.19 1012.35 1012.47 1012.63
1015.19 1015.31 1015.39 1015.31 1015.03 1014.83 1014.83 1014.99 1015.19 1015.55 1015.79 1015.83 1015.91 1016.03 1016.15 1016.23 1016.23 1016.35 1016.47 1016.63 1016.95 1017.23 1017.91 1018.11 1017.99 1017.75 1017.47 1017.51 1017.11 1016.59 1016.59 1016.31 1016.99 1016.83 1017.03 1016.99 1017.07 1017.11 1017.35 1017.11 1016.71 1015.75 1014.99 1015.55 1015.91 1016.03 1014.87 1014.51 1014.71 1014.71 1013.75 1013.19 1012.79 1012.51 1012.23 1012.11 1011.99 1011.95 1011.83 1011.75 1011.63 1011.55 1011.51 1011.51 1011.47 1011.43 1011.43 1011.47 1011.55 1011.67 1011.75 1011.87 1011.99 1012.11
1014.75 1014.87 1015.11 1015.27 1015.27 1014.87 1014.71 1014.71 1014.87 1015.11 1015.39 1015.63 1015.91 1016.19 1016.31 1016.27 1016.07 1016.11 1016.19 1016.27 1016.43 1016.71 1017.07 1017.35 1017.63 1016.87 1016.75 1017.03 1016.55 1016.07 1015.99 1016.59 1016.99 1016.99 1017.15 1016.83 1017.03 1017.07 1017.07 1016.35 1016.03 1015.35 1014.91 1015.75 1015.75 1015.95 1015.11 1014.35 1014.47 1014.51 1013.63 1012.83 1012.63 1012.39 1012.19 1012.07 1011.95 1011.75 1011.79 1011.87 1011.71 1011.59 1011.51 1011.43 1011.39 1011.39 1011.39 1011.39 1011.35 1011.35 1011.39 1011.47 1011.55 1011.67
1014.19 1014.31 1014.47 1014.67 1014.83 1014.75 1014.71 1014.55 1014.59 1014.83 1015.07 1015.35 1015.67 1015.91 1016.07 1015.99 1015.83 1015.75 1015.71 1015.75 1015.79 1015.99 1016.23 1016.47 1016.39 1016.19 1016.03 1015.95 1015.79 1015.75 1015.67 1015.79 1015.83 1015.99 1016.31 1016.35 1016.43 1016.23 1015.83 1015.75 1015.47 1015.31 1014.67 1014.83 1015.43 1016.47 1014.91 1013.99 1014.39 1014.19 1013.51 1012.95 1012.83 1012.43 1012.27 1012.07 1011.91 1011.99 1011.87 1011.67 1011.67 1011.63 1011.51 1011.43 1011.35 1011.27 1011.19 1011.15 1011.11 1011.07 1011.15 1011.27 1011.35 1011.43
1013.59 1013.67 1013.91 1014.19 1014.35 1014.39 1014.39 1014.27 1014.23 1014.39 1014.55 1014.99 1015.35 1015.71 1015.75 1015.75 1015.51 1015.27 1014.75 1014.59 1014.55 1014.67 1014.79 1015.07 1015.19 1015.11 1015.03 1014.95 1015.15 1015.23 1015.31 1015.39 1015.39 1015.51 1015.59 1015.67 1015.91 1016.31 1016.71 1016.87 1015.99 1015.99 1014.75 1014.47 1015.11 1015.59 1015.11 1013.99 1014.31 1014.11 1013.35 1013.15 1013.27 1012.75 1012.43 1012.07 1011.99 1011.91 1011.95 1011.87 1011.71 1011.51 1011.31 1011.19 1011.15 1011.15 1011.07 1011.03 1011.03 1011.03 1011.11 1011.23 1011.23 1011.35
1013.19 1013.27 1013.35 1013.55 1013.83 1013.95 1014.03 1013.91 1014.03 1014.15 1014.35 1014.79 1015.15 1015.35 1015.43 1015.31 1015.19 1014.99 1014.27 1013.95 1013.99 1013.99 1014.07 1014.11 1014.15 1014.27 1014.31 1014.47 1014.99 1015.19 1015.23 1015.31 1015.47 1015.79 1016.27 1016.55 1016.15 1016.67 1017.15 1016.83 1016.59 1016.27 1015.31 1014.67 1014.55 1014.99 1015.27 1014.27 1014.19 1014.11 1013.67 1013.67 1013.59 1013.11 1012.63 1012.27 1012.19 1012.19 1012.11 1011.99 1011.79 1011.55 1011.39 1011.27 1011.11 1011.03 1011.03 1010.95 1010.91 1010.87 1010.91 1011.07 1011.55 1011.87
1013.07 1012.95 1012.91 1012.99 1013.27 1013.51 1013.55 1013.51 1013.79 1013.95 1014.19 1014.71 1014.87 1015.11 1015.27 1015.39 1015.31 1014.91 1014.23 1013.87 1013.67 1013.67 1013.71 1013.75 1013.79 1013.99 1014.35 1014.63 1014.75 1014.87 1015.03 1015.19 1015.27 1015.79 1016.67 1015.87 1015.91 1016.67 1016.79 1017.15 1016.63 1015.95 1015.43 1014.91 1014.23 1015.07 1015.27 1014.47 1014.19 1014.43 1013.67 1013.55 1013.35 1013.11 1012.79 1012.63 1012.51 1012.31 1012.15 1011.95 1011.83 1011.75 1011.63 1011.39 1011.19 1010.99 1010.91 1010.95 1010.95 1010.91 1011.03 1011.35 1011.35 1011.43
1013.03 1012.91 1012.75 1012.75 1012.83 1013.03 1013.11 1013.27 1013.51 1013.71 1013.91 1014.31 1014.51 1014.75 1015.07 1015.35 1015.31 1014.71 1014.23 1014.19 1014.07 1013.87 1014.07 1014.15 1014.23 1014.39 1014.19 1014.31 1014.55 1014.63 1014.63 1014.63 1014.75 1014.91 1015.11 1015.15 1015.83 1016.47 1016.43 1016.39 1016.35 1016.59 1015.75 1014.63 1013.91 1015.27 1015.23 1015.03 1014.59 1014.75 1014.87 1014.75 1013.71 1013.19 1013.15 1013.03 1012.83 1012.51 1012.27 1012.23 1012.03 1011.91 1011.79 1011.67 1011.43 1011.19 1010.95 1010.83 1010.87 1010.87 1010.95 1011.03 1011.11 1011.15
1013.07 1012.87 1012.75 1012.59 1012.67 1012.79 1012.95 1013.11 1013.31 1013.51 1013.63 1013.83 1013.99 1014.23 1014.75 1015.03 1015.07 1014.03 1013.99 1013.83 1013.79 1013.95 1013.87 1013.79 1013.67 1013.83 1013.71 1013.83 1014.03 1014.19 1014.23 1014.27 1014.23 1014.31 1014.47 1014.67 1015.11 1015.75 1016.03 1015.99 1016.07 1016.55 1015.99 1014.63 1014.03 1015.11 1014.91 1014.79 1015.15 1014.59 1015.15 1015.87 1015.35 1013.75 1013.27 1013.35 1013.03 1012.75 1012.59 1012.59 1012.47 1012.19 1011.99 1011.79 1011.55 1011.27 1011.03 1010.79 1010.67 1010.63 1010.63 1010.79 1010.95 1010.99
1012.83 1012.79 1012.59 1012.31 1012.23 1012.47 1012.67 1012.91 1013.15 1013.35 1013.47 1013.43 1013.51 1013.67 1014.03 1013.95 1013.79 1013.63 1013.99 1013.87 1013.75 1013.95 1013.87 1013.87 1013.83 1013.83 1013.79 1013.91 1013.87 1013.95 1013.99 1013.99 1013.87 1013.79 1013.83 1014.19 1014.67 1015.27 1015.79 1015.99 1016.03 1015.95 1015.19 1014.47 1014.03 1014.75 1015.43 1015.03 1015.27 1014.87 1015.03 1015.07 1014.95 1014.75 1013.99 1013.71 1013.27 1013.11 1012.95 1012.87 1012.87 1012.51 1012.31 1012.07 1011.79 1011.55 1011.19 1010.95 1010.75 1010.67 1010.83 1011.03 1010.99 1010.87
1012.27 1012.11 1012.03 1011.99 1011.79 1011.95 1012.19 1012.51 1012.91 1013.11 1013.23 1013.27 1013.31 1013.15 1013.07 1013.19 1013.51 1013.75 1013.75 1013.83 1013.91 1014.03 1014.03 1013.99 1014.03 1013.99 1013.99 1014.03 1013.99 1014.07 1014.07 1013.91 1013.83 1013.87 1014.23 1014.47 1014.59 1014.71 1014.95 1015.43 1015.91 1016.19 1015.75 1014.47 1014.27 1014.63 1015.11 1015.31 1015.07 1015.23 1015.11 1015.35 1015.23 1014.99 1014.87 1014.35 1013.75 1013.43 1013.23 1013.03 1012.91 1012.75 1012.47 1012.35 1012.15 1012.03 1011.83 1011.63 1011.39 1011.27 1011.11 1010.91 1010.99 1010.95
1011.67 1011.35 1011.27 1011.19 1011.23 1011.51 1011.75 1012.03 1012.39 1012.71 1012.83 1013.03 1012.99 1012.83 1012.95 1013.27 1013.51 1013.63 1013.71 1013.83 1014.07 1014.27 1014.31 1014.39 1014.47 1014.43 1014.35 1014.47 1014.51 1014.47 1014.35 1014.19 1014.35 1014.39 1014.59 1014.55 1014.59 1014.67 1014.63 1014.59 1014.71 1014.99 1014.71 1014.39 1014.15 1014.31 1014.67 1014.99 1014.51 1015.07 1015.51 1015.35 1015.55 1015.19 1015.07 1015.07 1014.47 1013.67 1013.59 1013.31 1013.07 1012.91 1012.79 1012.87 1013.03 1012.87 1012.59 1012.31 1011.91 1011.51 1011.19 1010.87 1010.67 1010.67
1010.91 1010.95 1010.83 1010.75 1010.83 1011.07 1011.27 1011.51 1011.79 1012.15 1012.51 1012.71 1012.75 1013.03 1013.15 1013.39 1013.59 1013.71 1013.83 1013.99 1014.15 1014.31 1014.47 1014.59 1014.63 1014.67 1014.43 1014.39 1014.51 1014.43 1014.39 1014.39 1014.43 1014.35 1014.35 1014.35 1014.39 1014.59 1014.67 1014.59 1014.51 1014.35 1014.31 1014.23 1014.07 1014.03 1014.23 1014.71 1014.75 1014.63 1014.91 1015.27 1015.63 1015.79 1015.67 1014.71 1014.47 1014.23 1014.15 1013.51 1013.47 1013.59 1013.47 1013.51 1013.55 1013.39 1013.11 1012.83 1012.51 1012.11 1011.71 1011.23 1010.75 1010.55
1010.39 1010.47 1010.43 1010.35 1010.43 1010.67 1010.95 1011.15 1011.43 1011.79 1012.15 1012.43 1012.67 1012.95 1013.19 1013.47 1013.63 1013.75 1013.87 1013.95 1014.11 1014.43 1014.59 1014.59 1014.55 1014.47 1014.31 1014.19 1014.03 1013.87 1013.95 1013.91 1013.91 1014.15 1014.27 1014.35 1014.47 1014.51 1014.51 1014.47 1014.43 1014.39 1014.23 1013.99 1013.91 1013.99 1014.27 1014.55 1014.75 1014.63 1014.75 1014.91 1015.39 1015.39 1015.31 1015.27 1014.87 1014.51 1014.19 1014.35 1014.51 1014.11 1013.95 1013.95 1013.91 1013.87 1013.75 1013.51 1013.19 1012.71 1012.31 1011.75 1011.15 1010.67
1010.63 1010.63 1010.63 1010.59 1010.63 1010.83 1010.99 1011.43 1011.87 1012.03 1012.07 1012.39 1012.67 1012.87 1013.07 1013.23 1013.23 1013.31 1013.51 1013.71 1013.99 1014.19 1014.23 1014.31 1014.51 1014.27 1013.91 1013.95 1013.83 1013.55 1013.51 1013.83 1014.19 1014.27 1014.59 1014.79 1014.83 1014.75 1014.91 1015.07 1014.99 1014.55 1014.15 1013.91 1013.91 1014.11 1014.19 1014.39 1014.55 1014.59 1014.83 1014.91 1014.99 1015.23 1015.07 1015.11 1014.99 1014.55 1014.51 1014.79 1014.87 1014.39 1014.27 1014.27 1014.23 1014.15 1014.07 1013.79 1013.35 1012.91 1012.35 1011.95 1011.55 1011.03
1010.59 1010.67 1010.59 1010.63 1010.71 1010.87 1011.07 1011.15 1011.19 1011.43 1011.67 1012.43 1012.95 1013.07 1012.95 1012.79 1012.75 1012.79 1013.03 1013.27 1013.55 1013.75 1013.99 1014.19 1014.07 1013.83 1013.79 1013.55 1013.55 1013.83 1013.91 1014.19 1014.19 1014.07 1014.39 1014.71 1014.87 1014.91 1014.99 1015.31 1015.47 1015.11 1014.47 1014.15 1014.11 1014.15 1014.19 1014.31 1014.31 1014.39 1014.95 1014.95 1014.83 1014.87 1014.79 1014.71 1014.99 1015.07 1015.03 1014.95 1014.99 1015.47 1014.91 1014.67 1014.59 1014.43 1014.27 1013.95 1013.43 1012.95 1012.55 1012.11 1011.55 1011.03
1010.27 1010.55 1010.71 1010.79 1010.87 1011.03 1011.43 1011.43 1011.31 1011.39 1011.63 1011.91 1012.23 1012.43 1012.47 1012.47 1012.31 1012.27 1012.39 1012.63 1012.99 1013.27 1013.47 1013.63 1013.71 1013.99 1013.95 1014.19 1014.19 1014.15 1014.35 1014.39 1014.39 1014.31 1014.55 1014.83 1014.99 1014.91 1015.07 1015.55 1015.71 1015.31 1015.11 1014.83 1014.55 1014.23 1014.15 1014.23 1014.31 1014.27 1014.43 1014.67 1015.03 1014.87 1014.63 1014.79 1015.23 1015.35 1015.39 1015.19 1015.27 1015.27 1015.07 1014.95 1014.71 1014.47 1014.27 1013.95 1013.51 1013.11 1012.67 1012.23 1011.75 1011.23
1010.27 1010.51 1010.91 1011.15 1011.23 1011.39 1011.47 1011.55 1011.55 1011.51 1011.75 1011.79 1011.75 1011.83 1011.99 1012.03 1012.11 1012.27 1012.59 1013.23 1013.55 1013.59 1013.75 1014.15 1014.35 1014.55 1014.67 1014.79 1014.79 1014.95 1014.75 1014.71 1014.75 1014.59 1014.79 1014.75 1014.91 1014.91 1014.99 1015.51 1015.51 1015.47 1015.63 1015.51 1015.15 1014.83 1014.59 1014.43 1014.15 1014.27 1014.35 1014.59 1014.71 1014.87 1015.07 1015.51 1015.43 1015.43 1015.55 1015.51 1015.55 1015.47 1015.23 1014.99 1014.79 1014.55 1014.19 1013.95 1013.79 1013.35 1012.83 1012.35 1011.91 1011.51
1010.27 1010.59 1010.99 1011.07 1011.19 1011.35 1011.43 1011.55 1011.59 1011.47 1011.51 1011.71 1011.75 1011.63 1011.67 1011.83 1011.95 1012.35 1012.67 1013.11 1013.55 1013.91 1014.43 1014.87 1015.15 1015.59 1015.87 1016.15 1016.03 1015.79 1015.59 1015.43 1015.19 1014.99 1015.03 1015.07 1014.91 1015.15 1015.27 1015.39 1015.31 1015.31 1015.55 1015.67 1015.43 1015.19 1014.91 1014.67 1014.55 1014.55 1014.47 1014.83 1014.99 1015.11 1015.19 1015.43 1015.71 1015.59 1015.47 1015.51 1015.59 1015.55 1015.35 1015.07 1014.83 1014.59 1014.39 1014.35 1014.07 1013.59 1012.95 1012.43 1012.07 1011.75
1010.23 1010.47 1010.75 1010.83 1010.87 1010.91 1010.99 1011.19 1011.15 1010.99 1011.03 1011.15 1011.35 1011.39 1011.43 1011.67 1011.99 1012.43 1012.83 1013.27 1013.75 1014.51 1015.03 1015.27 1015.35 1015.11 1014.91 1014.75 1014.59 1014.83 1015.07 1015.15 1015.15 1015.23 1015.11 1014.99 1015.03 1015.11 1015.03 1015.23 1015.43 1015.59 1015.67 1015.59 1015.51 1015.19 1015.03 1015.07 1015.11 1015.31 1015.19 1015.03 1015.27 1015.43 1015.27 1015.23 1015.43 1015.59 1015.47 1015.51 1015.43 1015.43 1015.23 1014.95 1014.75 1014.55 1014.35 1014.15 1014.07 1014.03 1013.35 1012.63 1012.07 1011.75
1010.15 1010.15 1010.39 1010.55 1010.51 1010.47 1010.67 1010.63 1010.55 1010.43 1010.39 1010.43 1010.79 1011.11 1011.55 1011.91 1012.31 1012.91 1013.71 1013.67 1013.51 1013.43 1013.71 1013.95 1014.03 1013.99 1014.11 1014.27 1014.15 1014.03 1014.11 1014.31 1014.55 1014.79 1014.95 1014.95 1014.99 1014.91 1014.87 1015.11 1015.31 1015.47 1015.43 1015.51 1015.39 1015.11 1015.03 1015.35 1015.51 1015.91 1016.11 1015.99 1015.87 1015.91 1015.71 1015.39 1015.11 1015.27 1015.47 1015.47 1015.23 1015.11 1014.95 1014.67 1014.47 1014.47 1014.39 1014.27 1014.19 1014.19 1013.95 1013.39 1012.55 1011.91
1009.83 1009.83 1009.95 1010.11 1010.07 1010.07 1010.19 1010.11 1010.11 1010.07 1009.95 1010.23 1010.55 1010.91 1011.51 1012.23 1013.03 1013.15 1013.19 1012.87 1012.99 1013.35 1013.75 1014.27 1014.79 1014.87 1014.87 1014.95 1014.87 1014.35 1014.15 1014.03 1014.27 1014.27 1014.47 1014.59 1014.71 1014.91 1015.15 1015.27 1015.39 1015.43 1015.55 1015.39 1015.03 1015.03 1015.03 1015.59 1015.71 1015.99 1016.31 1016.39 1016.39 1016.47 1016.03 1015.19 1015.15 1014.91 1014.95 1015.03 1014.99 1014.83 1014.79 1014.67 1014.63 1014.59 1014.55 1014.59 1014.35 1014.27 1014.19 1013.87 1013.11 1012.31
1009.55 1009.55 1009.79 1009.79 1009.79 1009.67 1009.55 1009.51 1009.59 1009.91 1010.11 1010.47 1010.95 1011.35 1011.71 1012.15 1012.71 1012.95 1013.07 1013.59 1014.15 1014.35 1014.39 1014.55 1014.63 1014.75 1014.79 1014.99 1015.35 1015.03 1014.35 1013.91 1013.83 1013.99 1014.15 1014.31 1014.71 1015.07 1015.23 1015.47 1015.63 1015.59 1015.59 1015.27 1014.95 1014.95 1015.07 1015.47 1015.67 1015.75 1015.99 1016.39 1016.43 1016.35 1016.15 1015.15 1015.07 1015.03 1014.63 1014.43 1014.63 1014.75 1014.59 1014.67 1014.83 1014.95 1014.91 1014.67 1014.59 1014.23 1013.99 1013.79 1013.43 1012.75
1009.07 1009.23 1009.35 1009.51 1009.59 1009.63 1009.75 1009.79 1009.75 1010.03 1010.27 1010.59 1010.99 1011.39 1011.91 1012.35 1012.67 1012.99 1013.31 1013.67 1013.95 1014.15 1014.27 1014.19 1014.11 1014.23 1014.47 1014.67 1014.63 1014.35 1014.15 1014.11 1014.11 1014.11 1014.15 1014.27 1014.51 1014.87 1015.19 1015.47 1015.67 1015.55 1015.47 1015.39 1015.03 1014.87 1014.95 1015.39 1015.39 1015.35 1015.43 1015.75 1015.99 1015.83 1015.39 1015.35 1015.11 1014.67 1014.47 1014.43 1014.31 1014.51 1014.55 1014.75 1015.15 1015.31 1015.35 1015.11 1014.63 1014.15 1013.79 1013.59 1013.27 1012.75
1008.91 1009.03 1009.23 1009.43 1009.75 1009.83 1010.03 1010.07 1010.19 1010.31 1010.63 1010.87 1011.15 1011.35 1011.75 1012.31 1012.59 1012.95 1013.31 1013.63 1014.11 1014.35 1014.27 1014.19 1014.07 1013.87 1013.95 1013.95 1014.03 1013.91 1013.79 1013.87 1013.99 1013.99 1013.95 1014.11 1014.35 1014.63 1015.07 1015.27 1015.43 1015.43 1015.43 1015.51 1015.43 1015.07 1015.03 1015.15 1014.99 1014.91 1014.87 1014.83 1014.79 1014.63 1014.35 1014.35 1014.31 1014.11 1014.31 1014.51 1014.23 1014.43 1014.55 1014.79 1015.51 1015.63 1015.59 1015.39 1015.03 1014.71 1014.35 1013.71 1013.31 1012.63
1009.11 1009.39 1009.75 1009.75 1009.91 1010.07 1010.27 1010.47 1010.55 1010.67 1010.87 1011.07 1011.27 1011.51 1011.75 1012.07 1012.51 1012.79 1013.03 1013.47 1013.79 1013.91 1013.91 1013.79 1013.79 1013.91 1014.11 1014.03 1014.11 1014.11 1014.07 1013.87 1013.71 1013.75 1013.83 1014.07 1014.31 1014.55 1014.87 1014.95 1015.19 1015.11 1015.23 1015.35 1015.19 1015.11 1014.99 1014.59 1014.19 1013.95 1013.99 1014.11 1014.11 1014.15 1014.47 1014.83 1014.99 1014.71 1014.47 1014.47 1014.75 1015.03 1014.63 1014.59 1015.07 1015.39 1015.51 1015.27 1014.95 1014.99 1014.99 1014.71 1014.39 1013.47
1009.71 1009.95 1010.07 1010.03 1010.23 1010.31 1010.35 1010.55 1010.71 1010.87 1011.15 1011.39 1011.59 1011.71 1011.99 1012.27 1012.47 1012.63 1012.87 1013.15 1013.23 1013.27 1013.43 1013.47 1013.59 1013.67 1013.91 1013.95 1013.91 1013.79 1013.91 1013.91 1013.83 1013.87 1013.99 1014.15 1014.43 1014.55 1014.75 1014.87 1015.07 1014.91 1015.03 1015.15 1014.91 1014.79 1014.19 1013.79 1013.83 1013.87 1013.99 1014.11 1014.35 1014.83 1015.19 1015.03 1015.03 1014.75 1014.31 1014.59 1015.47 1015.63 1015.23 1014.99 1015.11 1015.23 1015.27 1015.07 1014.95 1015.03 1015.11 1014.79 1014.63 1014.23
1009.99 1010.19 1010.43 1010.55 1010.59 1010.67 1010.71 1010.79 1010.95 1011.11 1011.43 1011.51 1011.67 1011.95 1012.23 1012.43 1012.51 1012.67 1012.87 1013.15 1013.23 1013.23 1013.27 1013.23 1013.27 1013.43 1013.43 1013.43 1013.43 1013.47 1013.59 1013.79 1013.75 1013.87 1013.99 1014.11 1014.35 1014.59 1014.63 1014.59 1014.63 1014.63 1014.59 1014.63 1014.43 1014.23 1013.95 1013.79 1013.79 1013.95 1014.03 1014.15 1014.31 1014.39 1014.79 1014.59 1014.43 1014.27 1014.15 1014.19 1015.31 1015.75 1015.79 1015.39 1015.19 1015.27 1015.15 1015.07 1015.03 1015.19 1015.39 1015.47 1015.31 1014.95
1010.15 1010.27 1010.47 1010.59 1010.87 1011.03 1011.11 1011.15 1011.23 1011.31 1011.39 1011.47 1011.59 1011.83 1012.11 1012.39 1012.59 1012.67 1012.75 1012.95 1012.99 1013.07 1012.95 1012.99 1013.07 1013.23 1013.07 1013.03 1013.11 1013.27 1013.39 1013.67 1013.79 1013.95 1014.15 1014.23 1014.39 1014.51 1014.51 1014.47 1014.39 1014.43 1014.39 1014.39 1014.35 1014.23 1014.03 1013.91 1013.87 1013.91 1014.23 1014.31 1014.15 1014.31 1014.39 1014.27 1014.23 1014.03 1013.87 1013.83 1014.19 1014.83 1015.31 1015.39 1015.27 1015.03 1015.07 1015.11 1015.23 1015.31 1015.27 1015.15 1015.19 1015.27
1010.59 1010.67 1010.83 1010.95 1011.07 1011.23 1011.31 1011.39 1011.51 1011.59 1011.67 1011.79 1011.87 1011.99 1012.03 1012.11 1012.39 1012.47 1012.55 1012.71 1012.79 1012.67 1012.71 1012.79 1012.87 1012.79 1012.71 1012.95 1013.23 1013.51 1013.63 1013.67 1013.79 1013.95 1014.07 1014.19 1014.35 1014.35 1014.27 1014.19 1014.23 1014.31 1014.39 1014.31 1014.39 1014.31 1014.15 1014.07 1013.87 1013.75 1013.95 1013.99 1013.91 1013.99 1013.91 1013.95 1013.99 1013.87 1013.71 1013.75 1014.11 1013.95 1013.87 1014.07 1014.23 1014.63 1015.07 1015.23 1015.31 1015.35 1015.27 1015.03 1014.95 1014.99
Wind_Speed
4 4 4 3 3 3 3 4 3 4 3 3 2 1 1 2 1 1 1 3 3 4 6 1 3 5 4 5 4 5 4 4 5 6 7 7 6 11 17 17 17 18 18 19 19 20 20 21 21 21 21 20 21 22 22 21 21 21 21 20 20 20 19 18 17 16 16 16 15 15 15 15 15 15
3 3 4 6 3 2 2 2 3 1 2 2 1 1 2 4 3 2 1 3 2 4 6 3 0 1 6 3 5 3 4 8 7 6 7 8 8 12 15 17 18 18 19 19 19 20 20 20 20 21 22 22 22 23 22 21 21 21 21 21 21 21 20 19 19 18 18 18 17 17 16 15 16 16
3 3 3 1 3 4 4 3 3 3 4 3 2 2 2 3 4 3 2 2 3 2 4 3 3 0 3 5 5 5 5 8 11 8 8 8 11 13 10 14 16 18 18 18 18 19 19 20 20 20 21 21 21 21 21 21 21 21 21 21 22 21 21 20 19 19 19 19 19 18 18 16 18 17
4 3 3 3 2 1 0 2 2 2 3 4 4 4 4 3 3 3 2 3 6 3 4 6 6 6 4 7 5 4 4 6 12 7 7 7 9 8 6 10 13 15 17 17 18 19 19 20 20 20 20 20 21 21 21 21 21 21 21 22 22 22 21 21 20 20 20 20 20 19 19 19 19 18
4 4 4 3 3 2 2 2 2 3 3 3 3 3 3 4 3 4 4 4 6 5 4 6 5 6 6 4 4 5 4 4 4 7 7 6 6 6 6 6 10 13 15 17 18 19 20 20 21 21 21 21 21 22 22 22 22 22 22 22 22 22 22 21 21 21 21 20 20 20 20 20 20 18
5 4 4 4 4 4 4 3 4 4 4 4 5 5 5 4 4 5 4 5 5 7 3 5 4 5 4 5 4 5 7 6 5 5 4 4 6 7 6 6 6 12 14 15 17 19 19 20 20 21 21 21 21 21 21 21 21 21 21 21 21 21 22 21 21 21 21 21 21 20 20 20 20 19
5 4 4 5 5 5 5 5 5 4 4 4 4 5 6 6 5 4 5 4 5 5 6 4 5 5 4 4 4 4 5 4 4 5 5 5 4 3 4 4 6 9 11 13 16 17 18 18 19 19 19 20 20 21 21 20 20 20 20 21 21 21 21 21 21 21 20 20 20 20 20 20 21 21
6 6 6 6 6 6 5 5 5 5 4 4 4 3 3 2 3 4 4 5 4 4 6 5 6 4 5 5 5 6 6 7 6 4 4 3 3 4 4 6 6 8 11 13 14 15 17 17 17 17 17 18 18 19 19 19 19 19 19 20 21 21 21 21 20 20 20 20 20 20 20 20 21 21
6 6 6 7 6 5 5 4 5 4 5 4 4 4 3 4 4 3 4 4 3 4 6 6 5 5 5 5 5 4 6 5 5 5 5 3 3 4 5 6 7 10 15 16 17 15 14 14 14 15 16 17 18 18 18 18 18 18 19 19 20 20 20 20 20 19 19 19 19 20 20 21 21 20
7 7 7 7 6 7 6 6 5 4 6 5 5 5 4 3 3 4 5 4 5 5 6 7 7 5 6 6 5 4 5 5 5 4 4 4 3 4 5 6 7 7 7 6 7 7 7 10 15 17 16 16 17 18 19 18 18 18 18 19 20 20 20 19 19 18 18 18 19 19 20 21 21 21
8 9 8 7 7 7 7 7 6 5 5 5 5 5 5 5 4 4 3 4 5 6 7 7 7 7 6 6 7 5 6 6 5 5 4 6 6 6 6 6 6 6 7 9 12 11 11 15 13 11 13 14 15 17 17 18 18 18 18 19 19 19 19 19 19 18 17 17 18 19 19 20 20 21
10 10 10 10 9 9 7 7 6 6 5 5 6 6 4 4 4 4 4 4 5 6 6 7 7 6 5 3 4 3 3 5 6 6 6 8 7 7 5 5 5 5 6 6 7 9 10 8 8 10 11 12 13 14 16 18 18 18 18 18 18 18 18 18 18 18 17 17 17 18 19 19 19 20
9 9 9 10 10 9 12 12 10 9 7 5 5 5 5 5 5 5 5 5 5 6 6 7 6 7 7 6 5 5 5 6 8 6 5 6 5 3 3 3 3 4 6 6 7 7 6 7 7 7 8 9 13 14 13 12 16 17 16 17 18 18 19 18 18 18 17 16 17 17 18 18 19 19
10 11 11 9 15 15 15 16 16 16 15 11 7 4 4 5 6 5 5 5 5 6 7 7 6 7 8 6 5 5 4 4 4 5 3 2 2 3 3 3 2 4 6 7 7 6 5 7 8 8 9 9 8 6 7 7 9 11 14 15 16 17 18 18 18 18 17 16 16 16 17 18 18 18
9 9 10 9 9 10 13 14 18 17 16 15 13 12 9 5 3 4 6 6 6 6 7 7 7 7 9 8 6 5 4 4 4 3 2 3 4 4 5 6 4 5 5 3 4 7 6 6 9 8 8 9 8 8 8 9 11 12 11 11 12 14 16 17 17 17 17 16 15 16 16 17 18 18
8 8 8 9 8 7 7 7 10 14 16 16 16 15 13 13 11 8 6 5 5 5 6 6 7 6 7 7 5 6 5 3 3 3 4 3 3 3 3 4 7 5 3 5 7 8 6 5 6 7 8 9 8 9 11 15 16 14 12 10 11 12 14 15 15 15 16 16 15 15 16 16 17 18
8 8 8 7 6 8 12 10 8 9 10 14 16 15 14 13 13 14 13 11 10 7 7 9 9 8 7 7 6 4 4 4 6 4 4 2 2 3 5 6 6 7 5 8 8 8 7 4 6 7 8 8 8 10 11 12 13 12 12 13 14 13 12 13 14 15 15 15 15 14 15 16 16 17
9 9 8 8 8 6 5 5 8 8 9 9 9 8 7 8 12 14 15 16 16 12 10 9 11 10 7 9 7 7 5 6 6 5 3 2 3 5 6 6 8 7 6 7 7 8 8 5 5 7 7 6 4 5 7 12 14 16 15 14 14 14 14 13 13 13 13 14 14 14 14 15 16 17
10 9 9 9 9 8 7 6 6 7 8 7 7 9 10 11 10 9 10 10 10 10 8 10 12 12 10 10 9 7 7 8 6 3 2 1 3 5 6 7 7 7 5 8 5 7 7 4 4 4 5 5 5 4 7 14 14 11 12 14 14 13 12 13 13 13 13 14 14 15 14 14 15 15
9 9 9 9 9 8 7 10 12 10 7 7 8 8 8 9 9 10 11 14 13 12 10 11 11 10 12 13 9 5 1 1 0 1 2 2 3 5 6 7 5 6 4 5 5 6 7 6 7 4 3 5 6 7 7 7 11 16 16 15 17 19 16 13 12 12 13 13 14 13 12 11 13 13
7 8 9 9 9 9 9 11 13 13 10 7 8 8 9 8 9 9 9 15 20 19 18 17 17 17 17 14 7 5 5 3 2 1 4 6 5 5 6 6 5 5 5 6 6 6 7 3 5 8 4 3 6 6 4 5 9 12 14 15 14 15 16 17 17 13 11 12 12 12 11 10 6 4
5 7 13 12 9 9 9 12 14 14 11 8 9 8 8 8 9 8 8 8 8 17 20 19 19 14 8 5 6 6 7 8 5 3 7 7 2 4 4 6 5 5 6 3 4 4 4 7 5 8 8 5 2 5 4 6 6 9 10 13 14 14 15 18 19 19 17 12 11 11 9 3 3 4
8 7 10 14 13 11 10 12 14 14 12 9 9 9 8 9 10 9 8 7 8 5 4 6 6 6 9 8 6 7 11 12 10 8 8 4 5 5 5 4 3 4 3 2 6 4 4 6 5 6 8 9 3 2 5 5 6 7 5 7 9 14 16 17 16 16 17 15 10 10 6 4 7 4
9 10 9 11 15 16 14 13 13 14 16 11 9 8 9 9 11 9 8 8 5 2 3 2 4 7 6 5 5 5 6 8 10 9 7 6 5 4 3 3 2 3 4 1 7 5 3 4 6 5 4 6 8 8 5 6 6 6 7 9 8 11 14 14 12 13 14 14 12 9 8 7 8 4
10 10 10 10 13 17 18 15 13 14 16 14 10 10 10 10 4 2 2 2 4 3 3 3 2 1 2 3 5 5 5 5 5 7 7 3 3 3 3 3 3 4 5 3 9 4 3 4 6 5 4 3 6 8 8 8 6 6 9 8 8 9 9 8 6 8 11 13 14 13 9 6 9 7
10 10 10 10 12 17 19 19 15 15 15 17 11 11 12 11 5 3 1 2 2 3 4 4 4 3 2 1 2 3 4 5 2 6 8 5 3 2 2 2 2 4 4 3 7 4 5 4 3 5 4 4 6 6 8 7 6 6 7 7 7 8 7 8 9 10 11 12 12 13 17 12 10 12
11 10 9 10 15 17 19 19 19 17 17 12 12 15 12 6 3 2 3 2 2 3 3 4 4 1 1 2 2 3 2 3 5 4 4 2 1 1 1 2 3 4 4 4 3 5 4 3 2 3 4 4 6 7 6 7 7 6 6 7 7 6 10 11 12 12 12 12 12 18 16 13 7 11
9 9 9 9 13 17 19 20 20 19 17 11 15 13 11 7 3 3 4 5 6 6 6 6 5 3 2 2 2 1 4 5 4 3 2 2 3 4 4 4 4 4 3 4 5 4 2 2 4 3 3 4 6 7 8 5 6 7 8 6 6 10 9 11 11 11 12 12 13 13 13 12 10 5
4 1 2 7 15 16 17 18 19 16 17 17 13 12 10 7 4 5 6 6 6 6 6 6 5 3 1 3 3 4 4 3 4 3 2 4 3 3 3 3 3 4 4 4 3 2 4 3 3 3 3 3 5 5 5 7 7 8 7 9 9 9 8 9 9 10 11 12 13 12 11 12 12 10
7 5 7 7 5 7 9 7 5 6 9 12 12 9 9 6 6 6 6 7 7 7 6 4 3 4 3 2 4 4 4 4 3 1 2 1 2 2 3 4 5 5 5 2 3 4 3 3 3 3 3 3 3 4 3 6 6 5 8 9 8 5 6 9 9 9 11 12 12 12 11 12 12 12
4 5 3 3 4 3 9 8 8 7 7 7 4 5 6 6 6 7 6 6 7 6 4 4 5 2 5 4 3 4 5 4 3 3 3 1 2 3 3 3 4 5 2 3 3 3 3 3 3 3 3 3 3 2 4 4 4 7 7 7 8 9 9 8 8 9 10 11 10 9 9 10 11 13
5 4 3 4 3 4 4 4 4 4 4 6 6 6 6 6 6 7 9 8 5 4 4 4 3 4 3 3 2 2 2 2 3 2 2 2 1 1 2 2 3 3 2 3 3 2 4 3 3 4 2 3 3 3 3 5 7 6 6 5 6 6 8 9 10 9 10 10 10 11 10 10 10 11
8 4 4 4 5 4 5 5 5 5 5 6 6 7 7 6 6 4 4 5 4 2 2 3 5 4 3 3 4 1 0 3 2 2 2 1 0 0 0 2 4 2 5 5 4 2 3 3 3 2 5 6 6 6 4 5 5 5 5 5 6 7 7 8 9 10 10 10 10 11 12 10 9 10
10 9 6 6 7 7 6 7 7 8 7 7 7 7 5 5 4 5 5 5 6 5 7 6 9 10 9 7 4 3 3 2 1 1 2 1 1 1 1 2 2 5 3 4 3 2 2 2 3 5 4 7 7 6 4 4 4 3 4 4 5 6 6 7 8 9 9 8 10 12 12 11 9 9
10 9 9 9 8 8 7 8 9 8 8 8 7 6 5 6 3 6 3 4 9 10 8 6 5 4 4 5 4 1 0 1 2 0 2 2 4 2 1 2 2 1 3 4 2 2 2 2 5 5 6 2 2 2 7 5 3 4 2 3 3 4 6 7 7 8 9 9 8 11 13 12 11 9
10 9 9 9 9 8 9 8 8 9 9 7 7 6 4 4 6 9 10 10 9 8 9 8 7 6 6 5 4 5 5 5 4 3 4 3 1 1 1 0 1 1 3 2 3 1 3 6 7 7 6 5 5 3 2 6 6 2 4 3 2 3 4 6 7 7 8 9 9 9 11 13 13 12
10 10 9 8 8 7 7 7 7 8 6 5 6 5 6 7 9 10 9 8 6 7 7 6 3 1 2 3 3 3 3 5 4 5 2 3 3 3 2 2 2 2 3 3 4 1 4 6 5 5 4 4 5 5 6 1 4 5 1 2 2 2 3 4 6 7 7 7 10 9 10 11 12 12
8 8 8 7 7 7 7 6 5 3 5 7 7 7 6 8 8 8 8 7 7 4 4 4 4 5 6 5 5 7 5 4 3 3 3 3 3 5 1 2 2 2 3 5 2 3 6 5 4 3 2 2 3 4 5 5 0 1 6 2 4 1 0 3 5 7 8 8 9 9 7 8 10 11
7 8 8 7 3 3 3 3 5 7 7 8 7 7 8 8 8 8 8 8 6 5 3 3 4 5 6 8 9 4 3 3 2 1 1 1 4 3 3 3 1 1 4 3 2 1 4 5 4 2 1 1 2 1 3 5 3 4 6 7 4 1 1 2 5 5 6 9 10 10 8 7 7 11
3 3 3 4 3 3 3 4 6 6 7 6 7 7 8 7 6 6 7 6 6 5 5 6 4 4 3 0 1 2 2 4 4 4 3 3 3 2 4 1 2 3 0 2 4 4 2 4 4 1 1 3 5 6 6 5 4 3 3 3 5 2 2 5 5 2 4 5 6 9 12 12 12 11
2 4 5 4 4 4 5 5 6 7 7 7 7 7 7 7 7 7 7 6 6 7 6 5 3 2 0 1 2 1 2 1 2 1 3 2 1 3 3 3 2 3 3 1 0 3 1 2 4 9 5 3 4 4 4 3 3 5 4 3 1 11 12 10 6 3 2 2 5 7 9 10 10 10
5 5 4 4 5 5 5 7 6 7 7 7 7 7 7 6 5 7 5 5 5 4 1 3 6 6 4 3 1 1 1 1 2 4 2 0 1 1 4 4 3 1 3 2 1 1 2 1 4 4 3 3 2 1 3 3 3 3 4 5 6 5 10 13 10 6 3 4 7 8 4 5 5 7
6 6 5 5 6 5 5 6 7 7 7 7 8 7 6 6 6 6 5 5 5 4 2 2 3 2 4 3 4 3 1 2 1 1 0 2 0 2 2 1 0 2 3 3 1 2 2 1 2 3 1 2 2 1 4 2 2 2 4 2 8 4 2 8 11 11 11 10 8 6 2 1 3 6
5 6 6 5 6 5 4 4 5 6 6 5 5 4 5 5 4 4 5 5 4 3 4 4 5 6 3 1 1 2 4 1 2 3 2 1 2 3 3 4 2 2 2 2 2 3 3 0 1 2 3 3 2 3 4 3 3 3 5 1 6 7 6 4 1 7 9 10 9 6 6 6 4 2
7 7 7 6 6 6 6 4 5 6 6 4 3 2 2 4 4 4 3 4 3 3 3 3 2 1 3 3 1 0 4 4 1 1 1 1 3 5 4 1 0 1 2 2 3 4 2 2 4 2 2 3 3 4 4 3 3 4 5 1 3 2 4 4 2 4 5 4 6 5 4 7 8 7
Wind_Direction
229 199 226 219 228 276 341 1 337 77 75 60 88 121 136 139 118 291 304 313 315 322 323 199 177 171 175 191 221 216 226 228 190 198 211 220 231 211 217 223 227 227 228 229 231 232 234 235 237 238 238 237 236 236 238 238 239 240 242 244 245 246 246 246 244 242 241 239 236 233 231 230 234 238
238 250 211 189 213 230 271 247 266 53 100 112 176 202 195 135 164 186 242 284 312 298 296 311 136 191 194 192 223 240 207 221 204 206 211 222 228 230 213 219 225 230 232 233 234 235 236 237 238 239 240 240 240 241 241 241 240 241 243 245 245 246 245 245 243 242 241 239 237 234 229 223 229 235
245 240 262 207 190 192 207 227 227 192 153 164 196 246 169 169 168 196 191 257 273 255 291 324 4 269 222 214 217 225 210 211 210 213 217 221 229 236 232 222 227 231 235 236 238 239 240 241 241 242 243 244 246 246 246 246 246 245 245 245 246 246 245 244 242 240 239 237 235 232 230 221 226 230
216 221 236 264 259 264 195 237 277 304 165 170 182 213 214 201 189 179 204 224 259 294 290 301 299 288 234 229 257 250 236 215 210 224 230 240 242 248 254 245 226 232 238 241 242 243 243 243 244 245 245 246 247 248 248 248 248 248 248 247 248 247 246 244 242 240 238 236 233 230 228 227 226 227
222 202 213 222 223 237 233 222 244 248 238 179 187 217 219 209 196 190 202 234 263 270 263 269 281 296 308 286 225 253 254 255 232 221 234 236 243 249 255 261 256 238 238 242 243 244 244 244 245 245 245 246 247 248 248 248 248 248 248 249 249 249 248 246 244 241 239 237 234 230 228 226 225 222
229 218 202 211 231 214 228 239 220 228 246 202 192 196 213 225 224 199 197 214 228 264 263 275 269 271 255 270 262 264 267 265 259 250 235 235 235 249 257 262 262 251 241 242 244 245 245 246 247 248 248 249 250 251 251 252 252 252 252 252 251 251 250 249 248 245 242 240 237 233 229 226 224 221
218 235 220 217 215 223 217 210 230 242 238 245 233 206 194 206 219 214 205 208 235 253 259 251 271 264 267 255 281 273 269 268 259 261 265 264 268 256 247 253 270 272 258 246 248 251 250 250 249 250 250 251 252 253 254 254 254 254 254 254 254 253 252 251 249 247 246 245 243 239 234 229 225 223
214 212 223 231 221 219 223 213 204 211 232 246 250 268 266 215 224 217 213 216 228 236 260 251 250 263 272 276 277 286 284 287 289 284 291 290 290 301 297 294 290 289 290 281 259 246 248 249 251 253 256 260 260 259 258 257 256 255 255 255 255 254 253 251 250 248 247 245 244 243 240 235 230 226
211 215 220 218 229 231 225 222 217 216 223 223 237 238 224 224 224 235 235 251 243 250 253 262 254 254 257 260 262 256 273 267 266 271 262 265 267 273 280 285 283 275 264 257 261 261 257 257 256 252 252 253 256 257 256 255 254 253 253 254 255 255 255 254 251 249 246 244 243 241 241 240 236 229
212 220 216 223 219 225 229 229 225 218 223 226 226 230 239 231 221 219 229 223 240 248 254 260 274 262 268 271 256 246 241 254 263 265 263 251 243 245 259 259 270 290 302 313 299 293 280 254 244 247 248 253 254 254 254 255 255 253 252 252 254 255 255 255 253 250 246 244 242 241 239 238 236 233
216 217 219 217 221 226 224 226 225 221 221 224 234 228 220 224 234 253 242 231 236 242 255 260 256 265 253 250 267 247 232 244 237 250 264 268 249 238 238 257 255 267 281 284 283 280 276 281 282 277 273 266 262 259 255 255 254 255 254 253 252 252 253 254 253 249 245 243 241 240 239 239 237 234
215 213 218 223 216 219 223 223 223 225 226 210 219 221 226 223 224 229 237 245 244 249 257 257 264 258 268 262 261 278 283 280 271 245 242 256 259 245 230 230 259 273 275 275 281 283 288 295 285 279 279 284 283 268 257 253 251 251 252 253 255 255 254 253 253 250 244 241 240 239 239 238 237 236
219 222 217 218 224 211 210 214 221 229 226 226 224 217 211 221 218 218 227 237 247 258 264 273 277 277 274 268 270 267 250 251 257 253 227 246 259 272 274 275 258 280 286 279 286 294 308 305 297 298 301 300 296 289 269 253 250 249 250 249 249 250 250 250 252 252 246 240 238 237 238 238 236 234
213 223 231 227 218 217 207 205 210 217 224 224 230 229 210 210 213 221 227 228 236 244 252 260 266 270 270 269 259 256 247 248 260 268 286 324 346 332 300 293 282 290 287 289 289 291 305 306 303 299 296 295 288 283 295 281 256 242 239 242 245 247 249 249 249 251 250 243 237 236 235 236 236 234
216 215 220 236 240 223 217 206 207 213 216 221 225 230 234 230 222 226 220 227 226 232 243 248 252 258 267 265 266 266 283 279 277 299 12 341 340 334 334 309 284 256 272 288 310 300 297 296 289 293 292 292 293 297 282 286 302 292 281 265 253 249 250 251 249 249 250 247 238 234 233 233 234 234
214 222 222 220 225 231 222 194 202 212 215 219 224 227 231 236 238 224 218 232 247 247 256 255 255 267 267 284 289 292 295 307 335 333 332 338 344 329 303 289 290 290 349 324 303 289 285 275 283 294 292 290 284 282 287 289 289 290 292 284 265 253 251 252 252 250 249 247 241 234 232 231 231 231
213 214 226 236 228 226 219 211 194 196 213 222 224 226 230 238 240 244 241 229 230 245 251 256 262 255 273 282 277 283 298 314 295 303 304 325 296 286 283 276 287 290 332 307 293 292 291 291 282 275 271 274 277 280 284 296 308 306 294 293 295 287 271 261 258 254 251 249 245 237 232 229 228 228
215 212 213 219 232 240 234 212 203 193 204 208 214 215 222 232 242 244 245 249 244 233 236 242 248 249 247 256 263 267 273 285 281 283 267 284 295 289 285 299 287 289 291 282 291 286 283 273 272 274 274 273 285 299 312 328 318 307 323 323 311 306 298 289 278 271 265 259 253 245 235 229 228 227
210 213 213 215 221 224 231 226 206 203 199 198 206 214 222 230 237 238 239 231 227 228 212 224 235 245 242 247 250 258 258 256 255 183 235 255 262 273 278 274 271 278 255 256 259 279 291 271 265 267 294 319 314 312 327 308 306 328 336 346 350 333 314 303 294 284 275 266 259 253 244 234 231 230
206 208 210 214 218 222 222 220 216 211 203 207 211 206 212 225 232 234 231 230 225 224 218 215 223 224 225 226 230 215 109 71 46 282 229 245 270 285 283 281 302 300 306 297 289 292 297 303 295 302 329 336 320 322 303 304 4 1 356 346 343 339 329 316 304 297 291 283 275 268 260 250 240 236
209 207 209 211 215 217 221 216 207 213 203 212 217 224 229 230 236 233 229 220 223 223 222 221 215 221 222 218 140 143 166 162 121 291 309 286 273 274 288 295 308 305 314 297 296 289 295 323 330 323 330 346 307 296 317 359 0 354 350 338 321 315 323 334 334 328 313 300 290 278 267 260 289 289
234 224 217 215 217 218 219 208 202 203 197 212 217 225 233 240 245 251 258 270 237 221 227 226 227 228 249 267 246 225 219 220 196 195 244 255 273 277 273 289 296 300 291 292 1 343 322 340 347 330 322 312 264 316 343 357 350 350 327 317 323 337 352 356 357 352 346 332 308 298 293 336 174 190
236 236 231 227 224 224 222 208 198 197 193 211 214 220 230 240 247 249 257 250 260 256 216 244 245 242 227 228 229 242 238 235 222 215 233 227 206 234 241 256 281 287 278 58 13 12 321 350 347 351 330 321 322 28 4 342 347 325 333 356 350 355 2 357 347 346 341 337 325 299 286 211 180 196
223 229 233 227 228 229 229 218 197 197 198 207 215 214 222 232 238 244 243 247 262 335 322 292 216 226 215 175 185 200 209 211 211 212 213 213 211 228 241 247 243 265 281 19 21 25 330 10 328 347 329 321 322 334 341 350 338 337 7 355 346 356 355 338 332 325 332 326 318 283 262 206 183 202
217 218 223 231 218 218 224 220 198 194 203 211 213 212 219 224 217 74 263 286 344 296 317 321 319 293 134 168 197 200 218 238 236 219 208 172 150 197 240 290 303 292 307 353 24 24 327 351 315 327 311 300 305 322 332 331 337 360 2 350 346 343 336 324 323 332 329 327 319 322 304 243 204 214
221 219 215 220 216 209 214 216 202 196 197 212 217 222 220 223 175 229 284 329 312 286 267 273 275 260 258 272 1 343 316 308 352 32 60 58 42 24 22 356 321 295 299 338 7 344 328 306 302 308 320 337 323 328 323 330 338 357 347 340 338 329 327 338 349 351 356 354 348 355 347 334 219 228
219 221 221 216 208 204 208 210 208 201 203 201 216 225 233 237 305 306 262 269 288 291 293 284 284 327 3 351 358 299 289 71 68 51 48 52 83 78 316 323 314 295 292 306 310 297 272 273 334 8 357 351 329 329 326 330 330 343 332 337 332 355 1 7 360 354 349 344 338 337 334 326 274 232
217 222 219 220 204 198 203 207 209 210 203 206 216 226 238 257 284 282 258 253 252 252 254 244 240 241 235 252 262 307 54 52 65 64 23 24 22 15 336 305 285 277 291 292 280 261 286 4 13 32 21 356 342 331 322 310 320 335 329 336 13 7 4 10 356 351 347 344 341 338 335 332 321 278
226 134 192 228 199 197 201 205 208 212 210 211 210 207 214 213 218 211 225 230 225 232 229 228 227 231 201 229 233 105 108 87 57 44 33 34 4 316 298 304 333 332 312 296 297 33 62 52 16 9 21 8 333 314 313 329 334 327 349 8 2 356 10 2 355 353 351 345 338 333 332 328 325 317
115 142 95 97 144 190 202 194 188 187 202 202 202 192 181 189 202 203 204 212 215 221 212 205 198 218 218 85 98 125 116 94 89 101 98 41 312 349 349 346 331 306 286 296 22 64 51 42 36 33 1 318 297 306 327 334 323 339 20 12 354 331 12 358 358 356 352 343 335 330 329 332 325 320
128 145 149 130 153 130 178 192 187 189 157 145 160 185 200 204 207 210 208 206 211 206 179 175 219 149 113 159 138 98 102 121 188 150 124 117 20 4 356 345 304 301 312 23 27 62 62 48 28 347 300 284 286 330 332 316 348 17 11 4 4 356 350 353 354 352 346 334 325 324 329 328 327 327
177 137 102 119 129 125 139 206 179 183 149 171 173 185 191 204 213 221 216 203 194 165 173 206 121 100 95 105 136 121 127 162 114 99 91 76 34 358 360 341 314 296 359 29 346 18 51 20 325 297 297 335 348 349 353 26 32 18 352 2 9 357 357 355 348 345 340 331 331 336 331 329 328 332
215 178 153 175 179 177 188 196 200 188 178 190 193 195 198 201 206 170 135 144 134 125 152 89 89 78 62 22 24 339 359 92 104 120 104 128 137 131 225 273 277 348 18 347 324 6 27 323 300 13 23 45 52 43 36 39 29 22 356 13 12 2 2 354 350 339 335 340 342 335 331 328 330 329
209 203 189 192 198 201 202 204 207 209 199 194 203 202 198 206 191 154 145 135 126 87 70 47 38 33 27 8 328 309 339 24 307 154 146 173 168 167 249 300 10 41 0 293 306 348 333 306 22 37 15 82 51 55 37 46 37 17 16 25 21 8 358 348 345 339 340 343 335 330 328 328 327 326
207 210 212 215 218 213 215 217 214 214 215 209 196 199 184 208 142 130 103 75 66 65 73 74 98 144 178 208 200 172 203 301 325 29 218 220 212 216 344 7 38 6 292 297 334 316 1 359 43 30 358 12 119 84 35 19 100 18 28 40 36 11 357 352 343 341 339 339 345 334 328 326 328 333
202 210 210 215 219 213 215 218 224 223 224 204 179 174 159 149 78 87 88 107 137 154 140 138 159 171 180 195 194 174 178 177 218 225 195 204 161 65 55 73 82 322 297 321 301 311 38 49 49 30 5 353 358 348 49 358 36 101 39 11 20 13 357 349 345 341 341 343 344 341 337 330 325 329
198 204 211 216 215 218 224 214 217 224 220 162 155 141 121 102 98 107 121 132 134 120 127 116 119 233 289 297 299 262 192 185 190 177 204 187 155 122 57 39 17 341 335 302 279 99 72 72 59 45 11 358 352 2 353 2 28 340 129 50 6 37 356 345 342 340 348 344 336 346 334 323 323 323
198 199 210 221 222 216 224 213 179 129 100 106 100 98 86 103 112 120 120 101 81 92 127 150 141 190 219 244 252 247 221 181 153 169 190 145 122 101 115 79 13 342 305 282 290 91 96 101 88 95 79 2 327 353 328 312 192 272 271 205 68 336 262 354 358 359 348 344 340 333 327 330 328 326
196 201 202 204 156 120 102 106 131 133 125 120 122 116 107 107 122 130 128 129 147 172 147 194 201 203 215 212 210 188 188 143 97 94 92 124 107 110 95 82 323 279 273 310 333 132 133 117 139 139 123 207 284 242 261 280 283 203 259 262 121 252 170 51 32 14 353 344 342 335 336 322 297 304
161 87 90 90 88 83 78 95 92 86 88 98 99 104 110 117 117 115 115 119 130 156 187 213 215 167 189 246 264 229 189 138 172 198 159 110 99 109 111 143 216 243 146 13 329 311 70 126 162 165 203 212 225 230 237 253 265 218 170 250 210 116 77 89 73 6 355 346 330 353 346 343 345 341
95 103 69 77 84 88 101 95 101 100 101 101 111 118 117 122 126 128 131 137 165 193 200 189 133 98 269 221 198 313 356 36 81 75 80 79 87 112 140 201 243 208 153 189 211 309 21 194 181 199 212 236 254 273 305 354 346 344 343 152 10 53 93 96 114 94 69 323 16 16 355 341 330 335
57 72 78 82 98 95 104 110 111 110 100 96 86 93 101 109 119 128 131 145 155 159 222 153 146 168 190 207 133 119 135 291 27 52 53 109 77 100 174 209 246 348 330 301 206 223 288 248 181 207 207 227 248 255 302 328 325 331 328 98 77 82 94 108 107 105 114 60 43 27 345 325 327 345
87 84 79 66 62 72 78 89 93 100 113 116 106 103 119 120 137 148 143 147 163 190 205 195 157 187 187 172 181 173 92 24 275 202 130 87 70 245 241 221 336 273 241 280 308 225 254 296 336 300 251 261 237 250 278 276 256 250 283 155 136 148 124 113 120 110 83 74 75 97 98 327 344 348
83 98 102 98 80 71 66 79 101 110 120 113 102 108 121 135 135 141 161 166 162 189 196 221 185 197 169 170 161 118 113 68 331 100 104 61 336 315 298 282 283 307 329 358 335 325 304 5 343 333 292 259 263 269 270 289 293 292 286 210 141 160 179 203 206 94 82 65 57 65 83 89 110 185
69 67 73 73 72 58 43 52 68 77 79 82 85 81 115 136 164 184 176 157 202 175 184 239 315 76 108 122 90 37 91 105 95 86 104 250 261 262 250 228 318 11 332 321 322 310 324 320 310 302 257 270 270 263 252 264 278 286 291 88 138 140 117 151 184 135 72 71 28 44 84 94 78 54